User: anonymous   Login
Location: Unspecified
(0.0000°N, 0.0000°E)
Time: 16:34:49
(UTC+01:00)
Language:

BREEZE-M DEB (TANK) - Orbit

View from above orbital plane
View from above orbital plane
View from above satellite
View from above satellite

Ground track
Ground track

The orbit data is extracted from the following two-line orbital elements,

1 33374U 08044B   16036.70188121  .00000430  00000-0  18456-3 0  9994
2 33374  49.4573 272.9582 5421239 145.9720 265.2621  4.86074941129798
Epoch (UTC): 05 February 2016 16:50:42
Eccentricity: 0.5421239
inclination: 49.4573°
perigee height: 362 km
apogee height: 16323 km
right ascension of ascending node: 272.9582°
argument of perigee: 145.9720°
revolutions per day: 4.86074941
mean anomaly at epoch: 265.2621°
orbit number at epoch: 12979

The dashed part of the orbit path shows where the satellite is in the earth's shadow,  

DLR